This demonstration page uses our WeatherBlox Daily Observations layout. Learn more.

Left ArrowRight Arrow

34.74481, -87.66753

Hourly Observations for February 6, 2020

Temp ( °F °C ) Dew Point ( °F °C ) Humidity (%) Winds ( mph kmh ) Pressure ( in mb ) Visibility ( mi km ) Precip ( " mm )
12:53 am 00:53 Cloudy 57 13.9 55 12.8 93 93 NW 8 13 29.52 1000 10 16 0.05 1.27
1:07 am 01:07 Cloudy with Nearby Thunderstorms 57 13.9 55 12.8 93 93 WNW 14 22 29.55 1001 10 16 0.02 0.51
1:22 am 01:22 Cloudy with Strong Thunderstorms 54 12.2 51 10.6 90 90 WNW 18 30 29.60 1002 3 4 0.04 1.02
1:34 am 01:34 Cloudy with Rain 53 11.7 50 10 89 89 NW 12 19 29.58 1002 5 8 0.06 1.52
1:53 am 01:53 Cloudy with Light Rain 51 10.6 49 9.4 92 92 NNW 13 20 29.52 1000 10 16 0.08 2.03
2:05 am 02:05 Cloudy 51 10.6 48 8.9 89 89 NNW 9 15 29.56 1001 10 16 0.02 0.51
2:53 am 02:53 Cloudy 50 10 47 8.3 89 89 N 5 7 29.50 999 10 16 0.08 2.03
3:53 am 03:53 Cloudy with Heavy Rain 50 10 47 8.3 89 89 NNW 6 9 29.48 998 5 8 0.08 2.03
4:32 am 04:32 Cloudy with Rain 50 10 46 7.8 86 86 N 3 6 29.48 998 5 8 0.05 1.27
4:41 am 04:41 Cloudy with Rain 49 9.4 47 8.3 93 93 NNW 7 11 29.48 998 9 14 0.06 1.52
4:53 am 04:53 Cloudy with Rain 49 9.4 47 8.3 93 93 NW 6 9 29.46 998 7 11 0.07 1.78
5:53 am 05:53 Cloudy with Heavy Rain 47 8.3 45 7.2 93 93 NW 13 20 29.47 998 5 8 0.10 2.54
6:53 am 06:53 Cloudy with Rain 44 6.7 41 5 89 89 NW 23 37 29.62 1003 5 8 0.11 2.79
7:15 am 07:15 Cloudy with Light Rain 43 6.1 40 4.4 89 89 NW 14 22 29.63 1003 9 14 0.05 1.27
7:26 am 07:26 Cloudy with Light Rain 43 6.1 39 3.9 86 86 NW 15 24 29.62 1003 10 16 0.07 1.78
7:53 am 07:53 Cloudy with Light Rain 42 5.6 39 3.9 89 89 NW 13 20 29.59 1002 10 16 0.12 3.05
8:23 am 08:23 Cloudy 42 5.6 38 3.3 85 85 VRB 6 9 29.57 1001 10 16 0.05 1.27
8:34 am 08:34 Cloudy 42 5.6 38 3.3 85 85 N 6 9 29.57 1001 10 16 0.07 1.78
8:53 am 08:53 Cloudy 43 6.1 39 3.9 86 86 E 12 19 29.47 998 10 16 0.11 2.79
9:31 am 09:31 Cloudy 44 6.7 39 3.9 83 83 VRB 3 6 29.54 1000 10 16 0.07 1.78
9:53 am 09:53 Cloudy with Light Rain 44 6.7 39 3.9 83 83 NNE 5 7 29.51 999 10 16 0.10 2.54
10:53 am 10:53 Cloudy 45 7.2 39 3.9 80 80 Calm 29.53 1000 10 16 0.10 2.54
11:53 am 11:53 Cloudy 45 7.2 41 5 86 86 WNW 14 22 29.56 1001 10 16 0.01 0.25
12:28 pm 12:28 Cloudy 44 6.7 40 4.4 85 85 WNW 16 26 29.54 1000 10 16 0.00 0.00
12:53 pm 12:53 Cloudy 44 6.7 40 4.4 85 85 WNW 16 26 29.50 999 9 14 0.00 0.00
1:53 pm 13:53 Cloudy 43 6.1 39 3.9 86 86 NW 13 20 29.49 999 10 16 0.00 0.00
2:18 pm 14:18 Cloudy 43 6.1 39 3.9 86 86 WNW 12 19 29.51 999 10 16 0.00 0.00
2:32 pm 14:32 Cloudy 43 6.1 38 3.3 82 82 NW 12 19 29.51 999 10 16 0.00 0.00
2:43 pm 14:43 Cloudy 44 6.7 38 3.3 79 79 NW 10 17 29.50 999 10 16 0.00 0.00
2:53 pm 14:53 Cloudy 44 6.7 38 3.3 79 79 NW 9 15 29.49 999 10 16 0.00 0.00
3:53 pm 15:53 Cloudy 43 6.1 37 2.8 80 80 WNW 10 17 29.50 999 10 16 0.00 0.00
4:24 pm 16:24 Cloudy 42 5.6 38 3.3 85 85 WNW 12 19 29.53 1000 10 16 0.00 0.00
4:53 pm 16:53 Cloudy 42 5.6 37 2.8 82 82 NW 8 13 29.49 999 10 16 0.00 0.00
5:32 pm 17:32 Cloudy 41 5 37 2.8 86 86 NW 7 11 29.54 1000 10 16 0.00 0.00
5:53 pm 17:53 Cloudy 41 5 36 2.2 82 82 NW 6 9 29.52 1000 10 16 0.00 0.00
6:53 pm 18:53 Cloudy 40 4.4 37 2.8 89 89 WNW 9 15 29.53 1000 10 16 0.00 0.00
7:53 pm 19:53 Cloudy 39 3.9 36 2.2 89 89 WNW 8 13 29.53 1000 10 16 0.00 0.00
8:53 pm 20:53 Cloudy with Light Rain 39 3.9 35 1.7 86 86 W 12 19 29.54 1000 6 10 0.03 0.76
9:00 pm 21:00 Cloudy with Light Rain 38 3.3 36 2.2 93 93 W 14 22 29.56 1001 5 8 0.00 0.00
9:53 pm 21:53 Cloudy with Light Rain 37 2.8 34 1.1 89 89 WNW 16 26 29.55 1001 10 16 0.04 1.02
10:53 pm 22:53 Cloudy with Light Snow 36 2.2 33 0.6 89 89 WNW 13 20 29.57 1001 7 11 0.04 1.02
11:53 pm 23:53 Cloudy 36 2.2 33 0.6 89 89 WNW 9 15 29.57 1002 10 16 0.03 0.76

Powered by AerisWeather